Home > Time Zones > World Clock > Weather > U.S.A. > Gary > Past weeks

Flag for U.S.A. Weather past 2 weeks in Gary, Indiana, U.S.A.

Now
52 °F

Passing clouds.


Feels Like: 50 °F
Forecast: 47 / 53 °F
Wind: 6 mph from North

Location: Lansing Municipal Airport

Current Time: Oct 21, 2014 at 12:58:43 AM

Latest Report: Oct 21, 2014 at 12:15 AM


Visibility: 10 mi

Pressure: 29.99 "Hg

Humidity: 74%

Dew point: 44 °F

Location of GaryLocation

Historic Weather in Gary — Graph

°F

Gary temperature yesterday

Maximum temperature yesterday: 65 °F (at 2:35 PM)
Minimum temperature yesterday: 48 °F (at 7:35 AM)
Average temperature yesterday: 54 °F

Past Weeks' High & Low Weather Summary

 TemperatureHumidityPressure
High70 °F (Oct 13, 5:55 PM)99% (Oct 13, 4:35 AM)30.26 "Hg (Oct 13, 4:35 AM)
Low33 °F (Oct 19, 5:35 AM)30% (Oct 8, 3:55 PM)29.48 "Hg (Oct 14, 12:15 PM)
Average52 °F78%29.89 "Hg
* Reported Oct 5 11:15 PM — Oct 20 11:35 PM, Gary, Weather by CustomWeather, © 2014

Note: Actual official high and low records may vary slightly from our data, if they occured in-between our weather recording intervals... More about our weather records

Advertising

Gary weather history for previous 24 hours

 ConditionsComfort  
Time TempWeatherWind HumidityBarometerVisibility
11:35 PM
Oct 20
53 °FPassing clouds.6 mph72%29.99 "Hg10 mi
11:15 PM52 °FPassing clouds.5 mph73%29.99 "Hg10 mi
10:55 PM52 °FOvercast.5 mph73%29.99 "Hg10 mi
10:15 PM52 °FPassing clouds.5 mph74%29.99 "Hg10 mi
9:55 PM53 °FOvercast.8 mph75%29.99 "Hg10 mi
9:35 PM53 °FOvercast.7 mph77%29.99 "Hg10 mi
9:15 PM53 °FOvercast.7 mph80%29.98 "Hg10 mi
8:55 PM53 °FOvercast.5 mph79%29.98 "Hg10 mi
8:35 PM53 °FMostly cloudy.8 mph79%29.97 "Hg10 mi
8:15 PM54 °FMostly cloudy.9 mph79%29.97 "Hg10 mi
7:55 PM54 °FOvercast.9 mph81%29.97 "Hg10 mi
7:35 PM54 °FOvercast.10 mph80%29.96 "Hg10 mi
7:15 PM54 °FOvercast.6 mph81%29.96 "Hg10 mi
6:55 PM54 °FPassing clouds.8 mph79%29.95 "Hg10 mi
6:35 PM54 °FOvercast.8 mph80%29.95 "Hg10 mi
6:15 PM54 °FMostly cloudy.10 mph79%29.95 "Hg10 mi
5:55 PM54 °FMore clouds than sun.10 mph79%29.94 "Hg10 mi
5:35 PM55 °FMore clouds than sun.12 mph80%29.93 "Hg10 mi
5:15 PM55 °FMore clouds than sun.7 mph80%29.91 "Hg10 mi
4:55 PM56 °FMostly cloudy.9 mph77%29.90 "Hg10 mi
4:15 PM58 °FMore clouds than sun.8 mph73%29.88 "Hg10 mi
3:55 PM58 °FMore clouds than sun.8 mph71%29.87 "Hg10 mi
3:35 PM59 °FMore clouds than sun.10 mph69%29.86 "Hg10 mi
3:15 PM61 °FMore clouds than sun.9 mph66%29.85 "Hg10 mi
2:55 PM62 °FMostly cloudy.7 mph61%29.85 "Hg10 mi
2:35 PM65 °FPartly sunny.14 mph56%29.84 "Hg10 mi
2:15 PM64 °FScattered clouds.8 mph58%29.83 "Hg10 mi
1:55 PM63 °FSunny.8 mph59%29.84 "Hg10 mi
1:35 PM62 °FSunny.7 mph60%29.84 "Hg10 mi
1:15 PM62 °FSunny.5 mph62%29.84 "Hg10 mi
12:55 PM62 °FSunny.6 mph62%29.85 "Hg10 mi
12:35 PM61 °FScattered clouds.3 mph62%29.85 "Hg10 mi
12:15 PM60 °FSunny.6 mph65%29.86 "Hg10 mi
11:55 AM59 °FSunny.6 mph66%29.85 "Hg10 mi
11:15 AM57 °FSunny.5 mph68%29.85 "Hg10 mi
10:55 AM57 °FSunny.7 mph69%29.85 "Hg10 mi
10:35 AM55 °FSunny.9 mph73%29.85 "Hg10 mi
10:15 AM56 °FSunny.7 mph74%29.85 "Hg10 mi
9:55 AM54 °FSunny.5 mph75%29.84 "Hg10 mi
9:15 AM53 °FSunny.8 mph78%29.84 "Hg10 mi
8:55 AM53 °FSunny.9 mph79%29.84 "Hg10 mi
8:35 AM52 °FSunny.12 mph81%29.84 "Hg10 mi
8:15 AM50 °FThundershowers. Sunny.9 mph85%29.84 "Hg10 mi
7:55 AM49 °FSunny.9 mph86%29.83 "Hg10 mi
7:35 AM48 °FScattered clouds.6 mph88%29.83 "Hg10 mi
7:15 AM48 °FBroken clouds.8 mph87%29.82 "Hg10 mi
6:55 AM49 °FThunderstorms. Partly cloudy.9 mph85%29.82 "Hg10 mi
6:35 AM49 °FOvercast.8 mph85%29.82 "Hg10 mi
6:15 AM49 °FMostly cloudy.10 mph84%29.83 "Hg10 mi
5:55 AM49 °FPassing clouds.9 mph85%29.83 "Hg10 mi
5:35 AM49 °FPassing clouds.10 mph84%29.83 "Hg10 mi
5:15 AM49 °FClear.9 mph83%29.84 "Hg10 mi
4:55 AM48 °FClear.8 mph85%29.85 "Hg10 mi
4:35 AM49 °FClear.7 mph82%29.85 "Hg10 mi
4:15 AM49 °FClear.12 mph82%29.85 "Hg10 mi
3:55 AM50 °FPassing clouds.10 mph81%29.86 "Hg10 mi
3:35 AM49 °FOvercast.9 mph83%29.87 "Hg10 mi
3:15 AM49 °FOvercast.8 mph82%29.87 "Hg10 mi
2:55 AM49 °FOvercast.9 mph82%29.88 "Hg10 mi
2:35 AM49 °FOvercast.9 mph82%29.89 "Hg10 mi
2:15 AM49 °FOvercast.9 mph83%29.90 "Hg10 mi
1:55 AM49 °FPassing clouds.10 mph83%29.91 "Hg10 mi
1:35 AM48 °FPassing clouds.9 mph85%29.91 "Hg10 mi
1:15 AM49 °FClear.8 mph83%29.92 "Hg10 mi
12:55 AM49 °FClear.9 mph82%29.93 "Hg10 mi
12:35 AM49 °FPassing clouds.9 mph82%29.93 "Hg10 mi
Weather by CustomWeather, © 2014

See weather overviewHow to use our weather pages